When you browse on this site, cookies collect data to enhance your experience and personalize the content and advertising you see.
Visit our Privacy Policy to learn more. By continuing to use the site, you agree to this use of cookies and data.
  • In Schweiz
  • Länderverzeichnis
  • Für 7 Tage
  • Wassertemperatur
  • Satellitenkarten
  • Wetterkarte
  • Widgets
  • user-avatar
    Anmelden

    Stündliche Wetter Puerto Ayacucho

    Heute, 23 Juli, Dienstag

    Zeit Temperatur Niederschläge Wind Luftdruck Luftfeuchtigkeit
    00:00 +24°C° 1.7 mm 0 m/S 752 mmHg 93%
    01:00 +24°C° 1.7 mm 0 m/S 752 mmHg 94%
    02:00 +26°C° 1.4 mm 1 m/S 752 mmHg 94%
    03:00 +25°C° 1.4 mm 1 m/S 751 mmHg 95%
    04:00 +25°C° 1.4 mm 1 m/S 751 mmHg 96%
    05:00 +25°C° 0.8 mm 1 m/S 752 mmHg 95%
    06:00 +26°C° 0.8 mm 1 m/S 752 mmHg 93%
    07:00 +26°C° 0.8 mm 1 m/S 753 mmHg 92%
    08:00 +27°C° 0.1 mm 1 m/S 753 mmHg 87%
    09:00 +29°C° 0.1 mm 1 m/S 753 mmHg 83%
    10:00 +30°C° 0.1 mm 2 m/S 753 mmHg 78%
    11:00 +30°C° 1.2 mm 1 m/S 752 mmHg 78%
    12:00 +30°C° 1.2 mm 1 m/S 752 mmHg 78%
    13:00 +31°C° 1.2 mm 1 m/S 751 mmHg 78%
    14:00 +30°C° 3.6 mm 1 m/S 751 mmHg 80%
    15:00 +30°C° 3.6 mm 1 m/S 750 mmHg 83%
    16:00 +27°C° 3.6 mm 0 m/S 750 mmHg 86%
    17:00 +29°C° 0.9 mm 1 m/S 750 mmHg 87%
    18:00 +28°C° 0.9 mm 1 m/S 751 mmHg 88%
    19:00 +27°C° 0.9 mm 1 m/S 751 mmHg 90%
    20:00 +27°C° 0 mm 1 m/S 752 mmHg 91%
    21:00 +26°C° 0 mm 1 m/S 752 mmHg 91%
    22:00 +26°C° 0 mm 1 m/S 753 mmHg 92%
    23:00 +26°C° 0.7 mm 1 m/S 752 mmHg 93%

    Morgen, 24 Juli, Mittwoch

    Zeit Temperatur Niederschläge Wind Luftdruck Luftfeuchtigkeit
    00:00 +26°C° 0.7 mm 1 m/S 752 mmHg 94%
    01:00 +25°C° 0.7 mm 1 m/S 752 mmHg 95%
    02:00 +25°C° 1.2 mm 1 m/S 752 mmHg 95%
    03:00 +25°C° 1.2 mm 1 m/S 752 mmHg 96%
    04:00 +25°C° 1.2 mm 1 m/S 752 mmHg 97%
    05:00 +25°C° 0.4 mm 1 m/S 752 mmHg 96%
    06:00 +25°C° 0.4 mm 1 m/S 752 mmHg 96%
    07:00 +24°C° 0.4 mm 0 m/S 753 mmHg 95%
    08:00 +27°C° 1.8 mm 1 m/S 753 mmHg 92%
    09:00 +28°C° 1.8 mm 1 m/S 753 mmHg 89%
    10:00 +29°C° 1.8 mm 2 m/S 753 mmHg 85%
    11:00 +29°C° 2.6 mm 2 m/S 753 mmHg 84%
    12:00 +30°C° 2.6 mm 2 m/S 752 mmHg 82%
    13:00 +30°C° 2.6 mm 2 m/S 751 mmHg 80%
    14:00 +30°C° 1.6 mm 2 m/S 751 mmHg 83%
    15:00 +29°C° 1.6 mm 2 m/S 750 mmHg 85%
    16:00 +29°C° 1.6 mm 1 m/S 750 mmHg 88%
    17:00 +28°C° 1.6 mm 1 m/S 750 mmHg 90%
    18:00 +27°C° 1.6 mm 1 m/S 751 mmHg 92%
    19:00 +26°C° 1.6 mm 1 m/S 751 mmHg 94%
    20:00 +26°C° 0.4 mm 1 m/S 752 mmHg 94%
    21:00 +26°C° 0.4 mm 1 m/S 752 mmHg 95%
    22:00 +25°C° 0.4 mm 1 m/S 753 mmHg 95%
    23:00 +25°C° 1.2 mm 1 m/S 752 mmHg 96%

    übermorgen, 25 Juli, Donnerstag

    Zeit Temperatur Niederschläge Wind Luftdruck Luftfeuchtigkeit
    00:00 +25°C° 1.2 mm 2 m/S 752 mmHg 96%
    01:00 +25°C° 1.2 mm 2 m/S 751 mmHg 97%
    02:00 +24°C° 1.5 mm 1 m/S 751 mmHg 97%
    03:00 +24°C° 1.5 mm 1 m/S 751 mmHg 97%
    04:00 +24°C° 1.5 mm 1 m/S 751 mmHg 97%
    05:00 +24°C° 1.2 mm 1 m/S 752 mmHg 97%
    06:00 +25°C° 1.2 mm 1 m/S 752 mmHg 97%
    07:00 +25°C° 1.2 mm 1 m/S 753 mmHg 97%
    08:00 +25°C° 1.2 mm 1 m/S 753 mmHg 96%
    09:00 +25°C° 1.2 mm 1 m/S 753 mmHg 95%
    10:00 +25°C° 1.2 mm 1 m/S 753 mmHg 94%
    11:00 +27°C° 0.1 mm 1 m/S 753 mmHg 87%
    12:00 +28°C° 0.1 mm 2 m/S 752 mmHg 80%
    13:00 +30°C° 0.1 mm 2 m/S 751 mmHg 73%
    14:00 +30°C° 0.4 mm 2 m/S 751 mmHg 75%
    15:00 +30°C° 0.4 mm 2 m/S 751 mmHg 76%
    16:00 +30°C° 0.4 mm 2 m/S 750 mmHg 78%
    17:00 +28°C° 1.4 mm 2 m/S 751 mmHg 83%
    18:00 +27°C° 1.4 mm 2 m/S 751 mmHg 88%
    19:00 +26°C° 1.4 mm 2 m/S 752 mmHg 92%
    20:00 +26°C° 0.6 mm 1 m/S 752 mmHg 93%
    21:00 +25°C° 0.6 mm 1 m/S 753 mmHg 94%
    22:00 +23°C° 0.6 mm 0 m/S 753 mmHg 95%
    23:00 +23°C° 0.2 mm 0 m/S 753 mmHg 95%

    26 Juli, Freitag

    Zeit Temperatur Niederschläge Wind Luftdruck Luftfeuchtigkeit
    00:00 +23°C° 0.2 mm 0 m/S 752 mmHg 95%
    01:00 +23°C° 0.2 mm 0 m/S 752 mmHg 95%
    02:00 +23°C° 0.3 mm 0 m/S 752 mmHg 95%
    03:00 +23°C° 0.3 mm 0 m/S 752 mmHg 95%
    04:00 +23°C° 0.3 mm 0 m/S 752 mmHg 95%
    05:00 +23°C° 0.6 mm 0 m/S 752 mmHg 96%
    06:00 +23°C° 0.6 mm 0 m/S 753 mmHg 96%
    07:00 +23°C° 0.6 mm 0 m/S 754 mmHg 96%
    08:00 +23°C° 2.1 mm 0 m/S 754 mmHg 95%
    09:00 +25°C° 2.1 mm 1 m/S 754 mmHg 95%
    10:00 +25°C° 2.1 mm 1 m/S 754 mmHg 95%
    11:00 +26°C° 0.6 mm 1 m/S 754 mmHg 93%
    12:00 +27°C° 0.6 mm 2 m/S 753 mmHg 90%
    13:00 +27°C° 0.6 mm 3 m/S 752 mmHg 88%
    14:00 +27°C° 0.9 mm 2 m/S 752 mmHg 88%
    15:00 +27°C° 0.9 mm 2 m/S 751 mmHg 88%
    16:00 +27°C° 0.9 mm 2 m/S 751 mmHg 87%
    17:00 +27°C° 0.5 mm 1 m/S 752 mmHg 89%
    18:00 +26°C° 0.5 mm 1 m/S 752 mmHg 92%
    19:00 +25°C° 0.5 mm 1 m/S 753 mmHg 94%
    20:00 +25°C° 0.1 mm 1 m/S 753 mmHg 94%
    21:00 +23°C° 0.1 mm 0 m/S 753 mmHg 94%
    22:00 +23°C° 0.1 mm 0 m/S 754 mmHg 95%
    23:00 +23°C° 0.1 mm 0 m/S 753 mmHg 95%

    27 Juli, Samstag

    Zeit Temperatur Niederschläge Wind Luftdruck Luftfeuchtigkeit
    00:00 +23°C° 0.1 mm 0 m/S 753 mmHg 95%
    01:00 +23°C° 0.1 mm 0 m/S 752 mmHg 95%
    02:00 +24°C° 1.2 mm 1 m/S 752 mmHg 96%
    03:00 +24°C° 1.2 mm 1 m/S 752 mmHg 97%
    04:00 +24°C° 1.2 mm 1 m/S 752 mmHg 97%
    05:00 +24°C° 1.8 mm 1 m/S 753 mmHg 97%
    06:00 +24°C° 1.8 mm 1 m/S 753 mmHg 97%
    07:00 +24°C° 1.8 mm 1 m/S 754 mmHg 97%
    08:00 +24°C° 2 mm 2 m/S 754 mmHg 97%
    09:00 +24°C° 2 mm 2 m/S 755 mmHg 97%
    10:00 +24°C° 2 mm 2 m/S 755 mmHg 97%
    11:00 +25°C° 1.1 mm 2 m/S 754 mmHg 95%
    12:00 +25°C° 1.1 mm 1 m/S 754 mmHg 93%
    13:00 +26°C° 1.1 mm 1 m/S 753 mmHg 91%
    14:00 +26°C° 0 mm 1 m/S 752 mmHg 88%
    15:00 +27°C° 0 mm 1 m/S 752 mmHg 85%
    16:00 +27°C° 0 mm 1 m/S 751 mmHg 82%
    17:00 +26°C° 0 mm 1 m/S 752 mmHg 85%
    18:00 +26°C° 0 mm 1 m/S 753 mmHg 89%
    19:00 +25°C° 0 mm 1 m/S 753 mmHg 92%
    20:00 +25°C° 0 mm 1 m/S 754 mmHg 93%
    21:00 +25°C° 0 mm 1 m/S 754 mmHg 93%
    22:00 +24°C° 0 mm 1 m/S 754 mmHg 93%
    23:00 +24°C° 0.4 mm 1 m/S 754 mmHg 94%

    28 Juli, Sonntag

    Zeit Temperatur Niederschläge Wind Luftdruck Luftfeuchtigkeit
    00:00 +24°C° 0.4 mm 1 m/S 754 mmHg 94%
    01:00 +24°C° 0.4 mm 1 m/S 754 mmHg 95%
    02:00 +22°C° 0.6 mm 0 m/S 753 mmHg 95%
    03:00 +22°C° 0.6 mm 0 m/S 753 mmHg 96%
    04:00 +22°C° 0.6 mm 0 m/S 753 mmHg 96%
    05:00 +22°C° 0.9 mm 0 m/S 754 mmHg 96%
    06:00 +22°C° 0.9 mm 0 m/S 754 mmHg 95%
    07:00 +22°C° 0.9 mm 0 m/S 754 mmHg 95%
    08:00 +23°C° 0.1 mm 0 m/S 755 mmHg 92%
    09:00 +24°C° 0.1 mm 0 m/S 755 mmHg 89%
    10:00 +24°C° 0.1 mm 0 m/S 755 mmHg 87%
    11:00 +27°C° 0.2 mm 1 m/S 754 mmHg 84%
    12:00 +28°C° 0.2 mm 1 m/S 754 mmHg 82%
    13:00 +28°C° 0.2 mm 1 m/S 753 mmHg 79%
    14:00 +28°C° 0.5 mm 1 m/S 753 mmHg 81%
    15:00 +28°C° 0.5 mm 1 m/S 752 mmHg 82%
    16:00 +28°C° 0.5 mm 1 m/S 752 mmHg 84%
    17:00 +27°C° 0.5 mm 1 m/S 752 mmHg 86%
    18:00 +24°C° 0.5 mm 0 m/S 753 mmHg 88%
    19:00 +23°C° 0.5 mm 0 m/S 753 mmHg 91%
    20:00 +23°C° 0.1 mm 0 m/S 753 mmHg 91%
    21:00 +23°C° 0.1 mm 0 m/S 753 mmHg 92%
    22:00 +23°C° 0.1 mm 0 m/S 754 mmHg 92%
    23:00 +23°C° 0 mm 0 m/S 753 mmHg 93%
    Mehr zeigen